Regional Weather Roundup
Issued by NWS

Home | Current Version | Previous Version | Graphics & Text | Print | Product List | Glossary Off
Versions: 1 2 3 4 5 6 7 8 9 10 11 12 13 14 15 16 17 18 19 20 21 22 23 24 25 26 27 28 29 30 31 32 33 34 35 36 37 38 39 40 41 42 43 44 45 46 47 48 49 50

000
ASUS43 KFSD 041110
RWRSD

WEATHER ROUNDUP FOR SOUTH DAKOTA
NATIONAL WEATHER SERVICE SIOUX FALLS SD
600 AM CDT FRI SEP 04 2015

NOTE: "FAIR" INDICATES FEW OR NO CLOUDS BELOW 12,000 FEET WITH NO
SIGNIFICANT WEATHER AND/OR OBSTRUCTIONS TO VISIBILITY.


SDZ001>005-009-010-012>017-041200-
NORTHWEST AND NORTH CENTRAL SOUTH DAKOTA

CITY           SKY/WX    TMP DP  RH WIND       PRES   REMARKS
BUFFALO          N/A     64  59  83 NE3       29.74R
MOBRIDGE       CLOUDY    71  71 100 SE3       29.70R
$$

SDZ012>016-024>037-041>051-057-063-072>074-041200-
SOUTHWEST AND SOUTH CENTRAL SOUTH DAKOTA

CITY           SKY/WX    TMP DP  RH WIND       PRES   REMARKS
RAPID CTY ARPT MOCLDY    64  54  69 N6        29.78S
PIERRE         LGT RAIN  75  60  59 S23G31    29.73F
CUSTER         PTCLDY    60  44  55 W6        29.95R
ELLSWORTH AFB  CLOUDY    71  51  49 SE5       29.77F
PHILIP         LGT RAIN  70  60  70 NE6       29.72F
PINE RIDGE     CLEAR     65  55  70 S7        29.80S
WINNER         PTSUNNY   71  62  73 N8        29.71F
$$

SDZ004>011-016>023-039-040-041200-
NORTHEAST SOUTH DAKOTA

CITY           SKY/WX    TMP DP  RH WIND       PRES   REMARKS
ABERDEEN       MOCLDY    74  70  87 S6        29.73R
WATERTOWN      PTCLDY    73  68  84 SE8       29.78S
BROOKINGS      PTCLDY    72  66  83 SE12      29.82S
SISSETON         N/A     74  72  93 S8        29.76S
$$

SDZ017-020-022-023-036>040-048>070-041200-
SOUTHEAST SOUTH DAKOTA

CITY           SKY/WX    TMP DP  RH WIND       PRES   REMARKS
SIOUX FALLS    MOCLDY    74  67  78 S12       29.81F
HURON          CLOUDY    74  67  78 S10       29.72R
CHAMBERLAIN    LGT RAIN  70  65  84 W8        29.72F
MITCHELL       CLOUDY    74  68  81 S8        29.74S
YANKTON        MOCLDY    72  64  78 SE8       29.79R
$$

ABBREVIATIONS USED IN REMARKS
   TC - TEMPERATURE IN CELSIUS
  WCI - WIND CHILL INDEX
   HX - HEAT INDEX
  VSB - VISIBILITY



USA.gov is the U.S. government's official web portal to all federal, state and local government web resources and services.